Flag for Canada Weather past 2 weeks in Gatineau, Quebec, Canada

54 °F

Broken clouds.

Feels Like: 52 °F
Forecast: N/A
Wind: 6 mph from Southeast

Location: Ottawa Int'L. Ont.

Current Time: Oct 8, 2015 at 5:07:40 PM

Latest Report: Oct 8, 2015 at 4:00 PM

Visibility: 15 mi

Pressure: 30.15 "Hg

Humidity: 44%

Dew point: 32 °F

Location of GatineauLocation

Historic Weather in Gatineau — Graph


Gatineau temperature yesterday

Maximum temperature yesterday: 64 °F (at 2:00 PM)
Minimum temperature yesterday: 46 °F (at 6:00 AM)
Average temperature yesterday: 55 °F

Past Weeks' High & Low Weather Summary

High73 °F (Sep 23, 4:00 PM)100% (Sep 28, 3:50 PM)30.61 "Hg (Sep 28, 3:50 PM)
Low37 °F (Sep 27, 6:00 AM)35% (Oct 2, 2:00 PM)29.91 "Hg (Sep 29, 2:00 PM)
Average54 °F70%30.28 "Hg
* Reported Sep 23 4:00 PM — Oct 8 4:00 PM, Gatineau, Weather by CustomWeather, © 2015

Note: Actual official high and low records may vary slightly from our data, if they occured in-between our weather recording intervals... More about our weather records


Gatineau weather history for previous 24 hours

Time TempWeatherWind HumidityBarometerVisibility
4:00 PM
Thu, Oct 8
54 °FBroken clouds.6 mph44%30.15 "Hg15 mi
3:00 PM54 °FBroken clouds.2 mph44%30.17 "Hg15 mi
2:00 PM52 °FPartly sunny.2 mph47%30.19 "Hg15 mi
1:00 PM52 °FPartly sunny.5 mph47%30.21 "Hg15 mi
12:00 PM52 °FPassing clouds.3 mph54%30.23 "Hg15 mi
11:00 AM48 °FPassing clouds.8 mph66%30.24 "Hg15 mi
10:00 AM46 °FPassing clouds.7 mph71%30.24 "Hg15 mi
9:00 AM43 °FScattered clouds.9 mph81%30.24 "Hg15 mi
8:00 AM41 °FPassing clouds.7 mph87%30.23 "Hg15 mi
7:00 AM37 °FPassing clouds.7 mph87%30.21 "Hg15 mi
6:00 AM39 °FClear.5 mph81%30.20 "Hg15 mi
5:00 AM37 °FClear.5 mph87%30.18 "Hg15 mi
4:00 AM41 °FClear.6 mph76%30.17 "Hg15 mi
3:00 AM43 °FClear.7 mph71%30.17 "Hg15 mi
2:00 AM45 °FClear.6 mph66%30.16 "Hg15 mi
1:00 AM45 °FClear.6 mph71%30.14 "Hg15 mi
12:00 AM45 °FClear.7 mph71%30.13 "Hg15 mi
11:00 PM
Wed, Oct 7
46 °FClear.7 mph66%30.12 "Hg15 mi
10:00 PM50 °FPassing clouds.5 mph58%30.10 "Hg15 mi
9:00 PM52 °FClear.9 mph58%30.08 "Hg15 mi
8:00 PM55 °FPassing clouds.10 mph55%30.05 "Hg15 mi
7:00 PM54 °FPassing clouds.9 mph58%30.02 "Hg15 mi
6:00 PM59 °FPassing clouds.12 mph51%30.00 "Hg15 mi
5:00 PM63 °FScattered clouds.15 mph45%29.98 "Hg15 mi
Weather by CustomWeather, © 2015

See weather overviewHow to use our weather pages